[[{"header":{"parameterUnit":"m.s-1","parameterCategory":1,"la1":30.2991,"la2":30.254,"lo1":-89.0895,"lo2":-89.0444,"dy":0.0017,"dx":0.0017,"nx":28,"ny":28,"refTime":"2023-08-21T09:00:00:Z","depth":0,"parameterNumber":2,"parameterNumberName":"U-component_of_WINDS"},"data":[0,0,0,0,0,0,0,0,0,0,0,0,0,0,0,0,0,0,0,0,0,0,0,0,0,0,0,0,0,0,0,0,0,0,0,0,0,0,0,0,0,0,0,0,0,0,0,0,0,0,0,0,0,0,0,0,0,0,-5.5859,-5.5859,0,-5.5883,-5.5884,-5.5884,-5.5674,-5.5668,-5.5662,-5.5657,-5.5685,-5.5691,-5.5698,0,0,0,0,0,0,0,0,0,0,0,0,0,-5.5633,-5.5638,-5.5859,-5.5859,-5.5859,-5.5883,-5.5884,-5.5884,-5.5675,-5.5668,-5.5661,-5.5654,-5.5683,-5.5691,-5.5698,0,0,0,0,0,0,0,0,0,0,0,0,0,-5.5702,-5.564,-5.5859,-5.5758,-5.5749,-5.5883,-5.5884,-5.5884,-5.5677,-5.5668,-5.5659,-5.5651,-5.5681,-5.569,-5.5699,-5.5932,0,0,-5.5728,-5.5732,0,0,0,0,0,0,0,0,-5.5698,-5.571,-5.5772,-5.5765,-5.5755,-5.5766,-5.5814,-5.59,-5.5679,-5.5704,-5.5657,-5.5646,-5.572,-5.5725,-5.5749,-5.5933,-5.5935,-5.5728,-5.5734,-5.5738,-5.5741,0,0,0,0,0,0,0,-5.5694,-5.5708,-5.5868,-5.5774,-5.5763,-5.5712,-5.5712,-5.583,-5.5761,-5.5701,-5.5686,-5.5692,-5.5713,-5.5741,-5.5748,-5.5935,-5.5728,-5.5736,-5.5742,-5.5746,-5.6311,-5.632,0,0,0,0,0,0,-5.5702,-5.5706,-5.5868,-5.5869,-5.5705,-5.5723,-5.5723,-5.5772,-5.5759,-5.5749,-5.5699,-5.5682,-5.5729,-5.5738,-5.5749,-5.602,-5.5738,-5.5747,-5.5752,-5.6302,-5.6313,-5.6323,0,0,0,0,0,0,-5.5698,-5.5719,-5.5867,-5.5783,-5.5798,-5.5737,-5.5793,-5.5777,-5.5804,-5.5757,-5.5744,-5.574,-5.5723,-5.5735,-5.5888,-5.6018,-5.5751,-5.5759,-5.6291,-5.6305,-5.6318,-5.6566,0,0,0,0,0,0,-5.5693,-5.5719,-5.5806,-5.5787,-5.5804,-5.6006,-5.5801,-5.5784,-5.582,-5.5798,-5.5792,-5.5783,-5.5717,-5.5875,-5.5897,-5.6026,-5.5767,-5.6279,-5.6297,-5.6314,-5.6545,-5.6586,-5.6621,0,0,0,0,0,-5.5685,-5.5875,-5.5811,-5.5832,-5.5911,-5.6013,-5.6023,-5.5942,-5.5832,-5.5919,-5.5889,-5.5783,-5.6,-5.5892,-5.5915,-5.6049,-5.627,-5.6292,-5.6312,-5.6528,-5.6578,-5.662,0,0,0,0,0,0,-5.5913,-5.5871,-5.58,-5.5989,-5.6006,-5.5978,-5.6086,-5.5998,-5.6048,-5.6025,-5.5923,-5.5924,-5.6093,-5.6086,-5.5966,-5.6274,-5.6116,-5.6143,-5.6272,-5.6319,-5.6357,-5.6355,-5.5774,0,0,0,0,0,-5.5985,-5.607,-5.6029,-5.62,-5.6213,-5.6149,-5.619,-5.6126,-5.614,-5.6147,-5.6128,-5.6147,-5.6218,-5.6268,-5.6332,-5.6543,-5.6539,-5.6647,-5.6685,-5.6716,-5.6741,-5.6852,-5.6899,-5.6393,-5.6393,-5.6392,0,0,-5.6135,-5.6122,-5.6183,-5.6246,-5.6251,-5.6343,-5.6156,-5.6261,-5.6328,-5.6163,-5.6305,-5.6292,-5.6306,-5.6489,-5.6568,-5.6488,-5.6879,-5.6743,-5.6769,-5.6776,-5.6878,-5.6926,-5.6969,-5.6407,-5.6405,-5.6403,0,0,-5.6454,-5.6454,-5.6596,-5.6605,-5.6616,-5.6572,-5.6606,-5.6591,-5.6576,-5.6717,-5.6595,-5.6674,-5.68,-5.6815,-5.684,-5.7165,-5.7069,-5.7189,-5.7388,-5.7497,-5.7537,-5.7572,-5.7688,-5.7731,-5.7213,-5.7214,-5.7215,0,-5.6639,-5.6771,-5.668,-5.6793,-5.6825,-5.6678,-5.6822,-5.6836,-5.6868,-5.6894,-5.6803,-5.6958,-5.6958,-5.7142,-5.7221,-5.7246,-5.7282,-5.7189,-5.7538,-5.7572,-5.7603,-5.7713,-5.7757,-5.7229,-5.7227,-5.7225,-5.7224,0,-5.6998,-5.7092,-5.7206,-5.7239,-5.7283,-5.7411,-5.734,-5.7396,-5.7329,-5.7295,-5.7441,-5.7434,-5.7494,-5.7533,-5.7469,-5.7709,-5.7659,-5.7555,-5.7394,-5.7668,-5.7769,-5.781,-5.7249,-5.7244,-5.724,-5.7236,0,0,-5.7462,-5.7443,-5.7486,-5.7499,-5.75,-5.7571,-5.7693,-5.775,-5.78,-5.7828,-5.7927,-5.8038,-5.7941,-5.7969,-5.7906,-5.8002,-5.826,-5.7886,-5.7884,-5.7956,-5.8524,-5.8602,-5.8652,-5.8196,-5.8204,-5.821,-5.8523,0,-5.7773,-5.7978,-5.79,-5.8112,-5.8197,-5.806,-5.8165,-5.8178,-5.815,-5.8219,-5.8187,-5.8267,-5.8134,-5.815,-5.8239,-5.821,-5.8373,-5.8186,-5.8289,-5.8294,-5.8289,-5.8705,-5.8787,-5.9083,-5.8562,-5.8568,-5.8573,0,-5.8164,-5.8206,-5.8426,-5.8411,-5.8444,-5.8541,-5.8587,-5.8655,-5.8667,-5.8639,-5.8671,-5.8586,-5.8704,-5.8545,-5.8707,-5.8582,-5.8619,-5.8612,-5.8621,-5.8627,-5.845,-5.8723,-5.9175,-5.9219,-5.8635,-5.863,-5.8625,0,-5.848,-5.8591,-5.8737,-5.8752,-5.874,-5.8811,-5.8809,-5.8812,-5.8852,-5.8893,-5.8917,-5.8973,-5.9003,-5.9048,-5.8981,-5.887,-5.9154,-5.8988,-5.9135,-5.9137,-5.92,-5.9197,-5.9665,-5.9225,-5.9225,-5.9224,-5.9223,0,-5.8835,-5.8975,-5.8878,-5.8968,-5.9121,-5.903,-5.9184,-5.9167,-5.9171,-5.9256,-5.9141,-5.9223,-5.9129,-5.9203,-5.9151,-5.9294,-5.9309,-5.929,-5.9275,-5.9301,-5.9303,-5.9323,-5.9301,-5.9236,-5.9233,-5.9231,-5.9229,0,-5.9214,-5.9154,-5.9304,-5.928,-5.9277,-5.9391,-5.937,-5.9452,-5.9415,-5.9524,-5.9545,-5.9488,-5.9568,-5.9506,-5.9585,-5.955,-5.9739,-5.9695,-5.9735,-5.9723,-5.9873,-5.986,-6.037,-6.0433,-5.9954,-5.9958,-5.9962,0,-5.9444,-5.9548,-5.9535,-5.9583,-5.9588,-5.9667,-5.9706,-5.9621,-5.9668,-5.9689,-5.9769,-5.984,-5.9892,-6.0027,-5.9994,-6.0054,-6.001,-6.0185,-6.0019,-6.0041,-6.0013,-6.0007,-6.0017,-6.0219,-6.0225,-6.0229,-6.0233,0,-5.986,-5.9825,-5.9886,-5.9938,-5.9988,-6.0025,-6.0052,-6.0098,-6.0011,-6.0069,-6.0149,-6.019,-6.0271,-6.0342,-6.0391,-6.0389,-6.0299,-6.0286,-6.0323,-6.035,-6.0369,-6.036,-5.9827,-6.0274,-6.027,-6.0267,-6.0265,-6.0263,-6.0171,-6.0257,-6.0261,-6.0333,-6.0344,-6.0373,-6.0449,-6.0421,-6.0487,-6.0545,-6.0491,-6.0588,-6.0597,-6.0653,-6.0663,-6.0739,-6.0666,-6.072,-6.0734,-6.0749,-6.077,-6.0357,-6.0747,-6.0746,-6.0745,-6.0744,-6.0743,0,-6.058,-6.0576,-6.0643,-6.0684,-6.0741,-6.0649,-6.0674,-6.0728,-6.0815,-6.0831,-6.0884,-6.0977,-6.1046,-6.1018,-6.1079,-6.1145,-6.1104,-6.1164,-6.1158,-6.1159,-6.0831,-6.0793,-6.1195,-6.1195,-6.1195,-6.1195,-6.1195,-6.1195,-6.08,-6.094,-6.0907,-6.1052,-6.1047,-6.114,-6.1163,-6.1189,-6.1201,-6.1309,-6.1366,-6.1347,-6.1345,-6.1405,-6.1465,-6.1455,-6.1483,-6.1558,-6.1533,-6.1227,-6.1182,-6.114,-6.1103,-6.1565,-6.1565,-6.1854,-6.1857,-6.1859]},{"header":{"parameterUnit":"m.s-1","parameterCategory":1,"la1":30.2991,"la2":30.254,"lo1":-89.0895,"lo2":-89.0444,"dy":0.0017,"dx":0.0017,"nx":28,"ny":28,"refTime":"2023-08-21T09:00:00:Z","depth":0,"parameterNumber":3,"parameterNumberName":"V-component_of_WINDS"},"data":[0,0,0,0,0,0,0,0,0,0,0,0,0,0,0,0,0,0,0,0,0,0,0,0,0,0,0,0,0,0,0,0,0,0,0,0,0,0,0,0,0,0,0,0,0,0,0,0,0,0,0,0,0,0,0,0,0,0,-1.3002,-1.3002,0,-1.3025,-1.3025,-1.3025,-1.307,-1.3071,-1.3071,-1.3072,-1.3092,-1.3092,-1.3092,0,0,0,0,0,0,0,0,0,0,0,0,0,-1.2994,-1.2994,-1.3002,-1.3003,-1.3003,-1.3025,-1.3025,-1.3025,-1.3069,-1.3071,-1.3072,-1.3073,-1.3092,-1.3092,-1.3092,0,0,0,0,0,0,0,0,0,0,0,0,0,-1.3005,-1.2994,-1.3002,-1.3028,-1.303,-1.3024,-1.3025,-1.3025,-1.3069,-1.3071,-1.3072,-1.3073,-1.3093,-1.3092,-1.3092,-1.3062,0,0,-1.309,-1.309,0,0,0,0,0,0,0,0,-1.3004,-1.3005,-1.3024,-1.3026,-1.3029,-1.3046,-1.3029,-1.3038,-1.3069,-1.3054,-1.3072,-1.3074,-1.3076,-1.3077,-1.3078,-1.3063,-1.3064,-1.309,-1.309,-1.309,-1.309,0,0,0,0,0,0,0,-1.3004,-1.3005,-1.3011,-1.3024,-1.3027,-1.3037,-1.304,-1.3031,-1.3057,-1.3056,-1.3059,-1.3061,-1.3077,-1.3078,-1.3079,-1.3064,-1.309,-1.309,-1.309,-1.309,-1.3024,-1.3023,0,0,0,0,0,0,-1.3,-1.3004,-1.301,-1.3012,-1.302,-1.3036,-1.3039,-1.3039,-1.3057,-1.3062,-1.306,-1.3063,-1.3078,-1.3079,-1.3079,-1.3044,-1.309,-1.3089,-1.3089,-1.3026,-1.3024,-1.3022,0,0,0,0,0,0,-1.2999,-1.3,-1.3009,-1.3009,-1.3011,-1.3034,-1.3034,-1.3039,-1.304,-1.3061,-1.3065,-1.3056,-1.3079,-1.308,-1.3066,-1.3046,-1.3089,-1.3089,-1.3027,-1.3025,-1.3023,-1.2975,0,0,0,0,0,0,-1.2999,-1.3,-1.2989,-1.3008,-1.3011,-1.2996,-1.3033,-1.3038,-1.3039,-1.3043,-1.3058,-1.3062,-1.308,-1.3066,-1.3065,-1.3046,-1.3089,-1.3029,-1.3026,-1.3024,-1.2978,-1.2971,-1.2965,0,0,0,0,0,-1.2999,-1.2975,-1.2989,-1.2989,-1.2999,-1.2995,-1.2996,-1.3019,-1.3037,-1.3027,-1.304,-1.3062,-1.3048,-1.3064,-1.3064,-1.3044,-1.3031,-1.3027,-1.3024,-1.2981,-1.2972,-1.2965,0,0,0,0,0,0,-1.2953,-1.2978,-1.2993,-1.2976,-1.2983,-1.3003,-1.299,-1.3009,-1.3011,-1.3015,-1.3041,-1.3044,-1.3026,-1.3034,-1.3051,-1.3015,-1.3043,-1.3039,-1.301,-1.3002,-1.2996,-1.2994,-1.3088,0,0,0,0,0,-1.2941,-1.2937,-1.2959,-1.2941,-1.2944,-1.2966,-1.2965,-1.2982,-1.299,-1.2993,-1.3006,-1.3012,-1.3009,-1.3006,-1.3005,-1.298,-1.2982,-1.2966,-1.2959,-1.2954,-1.295,-1.2934,-1.2926,-1.3011,-1.3011,-1.3011,0,0,-1.2915,-1.2929,-1.2925,-1.2932,-1.2939,-1.2933,-1.2968,-1.2961,-1.2956,-1.2992,-1.2979,-1.2988,-1.2997,-1.2976,-1.2968,-1.2982,-1.2927,-1.2949,-1.2945,-1.2944,-1.293,-1.2922,-1.2915,-1.3009,-1.3009,-1.301,0,0,-1.2866,-1.2876,-1.2861,-1.2868,-1.288,-1.2894,-1.2891,-1.2907,-1.2915,-1.2902,-1.2929,-1.2923,-1.2918,-1.2922,-1.2924,-1.2874,-1.2894,-1.2873,-1.2838,-1.2823,-1.2816,-1.2811,-1.2791,-1.2783,-1.287,-1.2869,-1.2869,0,-1.2833,-1.2825,-1.2851,-1.2841,-1.2843,-1.2876,-1.2859,-1.2865,-1.2874,-1.2874,-1.289,-1.2883,-1.2892,-1.2872,-1.2859,-1.286,-1.2855,-1.2871,-1.2816,-1.281,-1.2805,-1.2786,-1.2779,-1.2867,-1.2867,-1.2867,-1.2868,0,-1.2783,-1.2777,-1.2764,-1.2772,-1.2772,-1.276,-1.2782,-1.2778,-1.2795,-1.2807,-1.2793,-1.2804,-1.2804,-1.2801,-1.2817,-1.2783,-1.2791,-1.2811,-1.2839,-1.2794,-1.2776,-1.2769,-1.2863,-1.2864,-1.2865,-1.2865,0,0,-1.2705,-1.2727,-1.2722,-1.2725,-1.2739,-1.2735,-1.2723,-1.2724,-1.2719,-1.2725,-1.2713,-1.2708,-1.2726,-1.2728,-1.2745,-1.2732,-1.2688,-1.2753,-1.2754,-1.2739,-1.2648,-1.2631,-1.2623,-1.2702,-1.2701,-1.27,-1.2647,0,-1.2657,-1.2638,-1.266,-1.2635,-1.2629,-1.266,-1.2649,-1.2655,-1.2667,-1.2662,-1.2674,-1.2669,-1.2695,-1.2696,-1.2684,-1.2696,-1.267,-1.2701,-1.269,-1.2689,-1.2685,-1.2614,-1.2597,-1.2546,-1.264,-1.2639,-1.2639,0,-1.2598,-1.26,-1.2575,-1.259,-1.2588,-1.2578,-1.2579,-1.2575,-1.2583,-1.2592,-1.2593,-1.2613,-1.26,-1.2628,-1.261,-1.263,-1.2627,-1.2632,-1.263,-1.2629,-1.266,-1.2608,-1.2531,-1.2522,-1.2629,-1.2629,-1.263,0,-1.254,-1.2538,-1.2522,-1.2524,-1.2541,-1.2533,-1.2539,-1.2548,-1.2546,-1.2548,-1.2546,-1.2546,-1.2545,-1.2544,-1.2562,-1.2582,-1.254,-1.2571,-1.2545,-1.2545,-1.2534,-1.2534,-1.2452,-1.2535,-1.2535,-1.2536,-1.2536,0,-1.2483,-1.2466,-1.2496,-1.2486,-1.2467,-1.2492,-1.2472,-1.2482,-1.2489,-1.248,-1.2507,-1.2498,-1.2524,-1.2517,-1.2532,-1.2512,-1.2513,-1.2518,-1.2521,-1.2514,-1.2513,-1.2511,-1.2514,-1.2534,-1.2534,-1.2534,-1.2535,0,-1.2415,-1.2435,-1.2419,-1.2436,-1.244,-1.2425,-1.2439,-1.2429,-1.2442,-1.243,-1.2429,-1.2449,-1.2442,-1.2461,-1.2457,-1.2466,-1.2438,-1.2449,-1.2435,-1.2438,-1.241,-1.2411,-1.2323,-1.2311,-1.2404,-1.2403,-1.2402,0,-1.2376,-1.2364,-1.2379,-1.2375,-1.238,-1.2374,-1.2373,-1.2396,-1.2393,-1.24,-1.2389,-1.2385,-1.2382,-1.2369,-1.2382,-1.2379,-1.2388,-1.2357,-1.2388,-1.238,-1.2385,-1.2384,-1.2382,-1.235,-1.2349,-1.2348,-1.2347,0,-1.2304,-1.2314,-1.2312,-1.2312,-1.2309,-1.231,-1.2313,-1.2308,-1.2333,-1.2328,-1.2322,-1.232,-1.2316,-1.231,-1.2309,-1.2314,-1.2334,-1.2338,-1.2331,-1.2323,-1.2315,-1.2316,-1.2416,-1.2339,-1.234,-1.2341,-1.2341,-1.2342,-1.2248,-1.2237,-1.2246,-1.2242,-1.2246,-1.2248,-1.2239,-1.2251,-1.2246,-1.2245,-1.2259,-1.2249,-1.2255,-1.2256,-1.2259,-1.225,-1.2264,-1.2255,-1.2252,-1.2249,-1.2243,-1.2318,-1.225,-1.2251,-1.2251,-1.2251,-1.2251,0,-1.2175,-1.2182,-1.2178,-1.2181,-1.2177,-1.2197,-1.2201,-1.2196,-1.2186,-1.2191,-1.2188,-1.2179,-1.2173,-1.2186,-1.2181,-1.2172,-1.218,-1.217,-1.2169,-1.217,-1.2233,-1.2238,-1.2162,-1.2162,-1.2162,-1.2162,-1.2162,-1.2162,-1.2137,-1.2119,-1.213,-1.2114,-1.2121,-1.2112,-1.2112,-1.2113,-1.2116,-1.2105,-1.2101,-1.2109,-1.2116,-1.2113,-1.2107,-1.2111,-1.2107,-1.2093,-1.2099,-1.2157,-1.2166,-1.2174,-1.2178,-1.2092,-1.2092,-1.2037,-1.2036,-1.2036]}]]